Flag for U.S.A. Weather past 2 weeks in Spartanburg, South Carolina, U.S.A.

Now
72 °F

Passing clouds.


Feels Like: 65 °F
Forecast: 65 / 77 °F
Wind: 5 mph from Northwest

Location: Spartanburg Memorial

Current Time: Sep 16, 2014 at 11:35:16 PM

Latest Report: Sep 16, 2014 at 10:55 PM


Visibility: 10 mi

Pressure: 29.97 "Hg

Humidity: 100%

Dew point: 72 °F

Location of SpartanburgLocation

Historic Weather in Spartanburg — Graph

°F

Spartanburg temperature yesterday

Maximum temperature yesterday: 77 °F (at 1:35 PM)
Minimum temperature yesterday: 64 °F (at 6:55 AM)
Average temperature yesterday: 71 °F

Past Weeks' High & Low Weather Summary

 TemperatureHumidityPressure
High97 °F (Sep 2, 4:15 PM)100% (Sep 2, 1:55 AM)30.28 "Hg (Sep 2, 1:55 AM)
Low63 °F (Sep 14, 8:35 AM)34% (Sep 2, 4:35 PM)29.94 "Hg (Sep 16, 5:35 PM)
Average76 °F81%30.09 "Hg
* Reported Sep 1 10:15 PM — Sep 16 10:35 PM, Spartanburg, Weather by CustomWeather, © 2014

Note: Actual official high and low records may vary slightly from our data, if they occured in-between our weather recording intervals... More about our weather records

Advertising

Spartanburg weather history for previous 24 hours

 ConditionsComfort  
Time TempWeatherWind HumidityBarometerVisibility
10:35 PM
Sep 16
72 °FClear.No wind100%29.97 "Hg10 mi
10:15 PM73 °FPassing clouds.3 mph89%29.97 "Hg10 mi
9:55 PM73 °FPassing clouds.No wind89%29.98 "Hg10 mi
9:35 PM72 °FClear.No wind100%29.97 "Hg10 mi
9:15 PM72 °FClear.No wind100%29.97 "Hg10 mi
8:55 PM72 °FClear.5 mph94%29.98 "Hg10 mi
8:35 PM72 °FClear.3 mph88%29.97 "Hg10 mi
8:15 PM73 °FSunny.3 mph78%29.96 "Hg10 mi
7:55 PM75 °FSunny.5 mph78%29.96 "Hg10 mi
7:35 PM77 °FSunny.5 mph79%29.94 "Hg10 mi
7:15 PM77 °FSunny.6 mph83%29.96 "Hg10 mi
6:55 PM79 °FThundershowers. Scattered clouds.6 mph74%29.95 "Hg10 mi
6:35 PM79 °FLight rain. Broken clouds.No wind74%29.94 "Hg10 mi
6:15 PM82 °FScattered clouds.5 mph62%29.95 "Hg10 mi
5:55 PM82 °FSunny.3 mph58%29.95 "Hg10 mi
5:35 PM88 °FScattered clouds.6 mph49%29.94 "Hg10 mi
4:55 PM88 °FScattered clouds.7 mph46%29.95 "Hg7 mi
4:35 PM88 °FPartly sunny.3 mph46%29.96 "Hg10 mi
4:15 PM86 °FPartly sunny.No wind49%29.97 "Hg10 mi
3:55 PM86 °FBroken clouds.No wind49%29.98 "Hg10 mi
3:35 PM88 °FMostly cloudy.5 mph43%29.98 "Hg10 mi
3:15 PM88 °FBroken clouds.3 mph46%29.99 "Hg10 mi
2:55 PM88 °FScattered clouds.6 mph46%29.99 "Hg10 mi
2:35 PM86 °FScattered clouds.5 mph49%30.00 "Hg10 mi
2:15 PM86 °FSunny.7 mph46%30.01 "Hg7 mi
1:55 PM86 °FScattered clouds.8 mph49%30.02 "Hg10 mi
1:35 PM86 °FScattered clouds.6 mph49%30.03 "Hg10 mi
1:15 PM86 °FScattered clouds.7 mph49%30.03 "Hg10 mi
12:55 PM86 °FSunny.5 mph49%30.04 "Hg10 mi
12:35 PM86 °FSunny.7 mph52%30.04 "Hg7 mi
12:15 PM84 °FSunny.9 mph51%30.05 "Hg10 mi
11:55 AM84 °FSunny.8 mph51%30.06 "Hg10 mi
11:35 AM82 °FSunny.7 mph55%30.06 "Hg10 mi
11:15 AM82 °FSunny.5 mph58%30.06 "Hg10 mi
10:55 AM81 °FSunny.7 mph62%30.06 "Hg10 mi
10:35 AM81 °FSunny.9 mph66%30.06 "Hg10 mi
9:55 AM77 °FSunny.7 mph83%30.07 "Hg10 mi
9:35 AM77 °FSunny.6 mph83%30.06 "Hg10 mi
9:15 AM75 °FSunny.8 mph94%30.07 "Hg10 mi
8:55 AM73 °FSunny.5 mph100%30.07 "Hg7 mi
8:35 AM72 °FSunny.5 mphN/A30.07 "Hg5 mi
8:15 AM72 °FSunny.3 mphN/A30.07 "Hg5 mi
7:35 AM72 °FPassing clouds.No windN/A30.07 "Hg5 mi
7:15 AM72 °FClear.No windN/A30.07 "Hg5 mi
6:55 AM72 °FClear.5 mphN/A30.07 "Hg5 mi
6:35 AM72 °FClear.3 mphN/A30.07 "Hg5 mi
6:15 AM72 °FPassing clouds.No windN/A30.07 "Hg7 mi
5:55 AM72 °FLow clouds.No windN/A30.07 "Hg5 mi
5:35 AM72 °FLow clouds.7 mphN/A30.07 "Hg5 mi
5:15 AM72 °FPassing clouds.No windN/A30.07 "Hg5 mi
4:55 AM72 °FPassing clouds.No windN/A30.07 "Hg5 mi
4:35 AM72 °FMostly cloudy.5 mphN/A30.07 "Hg4 mi
4:15 AM72 °FFog.3 mphN/A30.08 "Hg3 mi
3:55 AM72 °FFog.3 mphN/A30.07 "Hg1 mi
3:35 AM72 °FFog.3 mphN/A30.08 "Hg2 mi
3:15 AM72 °FFog.No windN/A30.08 "Hg3 mi
2:55 AM72 °FFog.No windN/A30.10 "Hg3 mi
2:35 AM72 °FPassing clouds.No windN/A30.10 "Hg4 mi
1:55 AM72 °FFog.No windN/A30.12 "Hg3 mi
1:35 AM72 °FLow clouds.No windN/A30.12 "Hg4 mi
1:15 AM72 °FFog.No windN/A30.13 "Hg3 mi
12:55 AM72 °FLight rain. Passing clouds.3 mphN/A30.13 "Hg4 mi
12:35 AM72 °FClear.No windN/A30.14 "Hg4 mi
12:15 AM72 °FClear.No windN/A30.15 "Hg4 mi
11:55 PM
Sep 15
72 °FClear.No windN/A30.14 "Hg5 mi
11:35 PM72 °FClear.No windN/A30.14 "Hg5 mi
11:15 PM72 °FClear.No windN/A30.15 "Hg5 mi
Weather by CustomWeather, © 2014

See weather overviewHow to use our weather pages